User: anonymous   Login
Location: Unspecified
(0.0000°N, 0.0000°E)
Time: 10:50:23
(UTC+00:00)
Language:

Hispasat 1B - Orbit

View from above orbital plane
View from above orbital plane
View from above satellite
View from above satellite

Ground track
Ground track

The orbit data is extracted from the following two-line orbital elements,

1 22723U 93048A   18200.55238525 -.00000004 +00000-0 +00000-0 0  9991
2 22723 011.2981 033.8237 0007334 226.7412 122.1979 00.99718839091013
Epoch (UTC): 19 July 2018 13:15:26
Eccentricity: 0.0007334
inclination: 11.2981°
perigee height: 35911 km
apogee height: 35973 km
right ascension of ascending node: 33.8237°
argument of perigee: 226.7412°
revolutions per day: 0.99718839
mean anomaly at epoch: 122.1979°
orbit number at epoch: 9101

The dashed part of the orbit path shows where the satellite is in the earth's shadow,  

DLR